Regional Weather Roundup
Issued by NWS Kansas City/Pleasant Hill, MO

Home | Current Version | Previous Version | Graphics & Text | Print | Product List | Glossary Off
Versions: 1 2 3 4 5 6 7 8 9 10 11 12 13 14 15 16 17 18 19 20 21 22 23 24 25 26 27 28 29 30 31 32 33 34 35 36 37 38 39 40 41 42 43 44 45 46 47 48 49 50

621
ASUS43 KEAX 271810
RWREAX

WEATHER ROUNDUP FOR EASTERN KANSAS AND NORTHWEST MISSOURI
NATIONAL WEATHER SERVICE KANSAS CITY/PLEASANT HILL MO
100 PM CDT THU JUL 27 2017

KSZ040-057-103>105-MOZ028-029-037-043-271900-
...KANSAS CITY METROPOLITAN AREA...

CITY           SKY/WX    TMP DP  RH WIND       PRES   REMARKS
K.C. INTL      CLOUDY    82  74  76 NE7       29.98S
6HR MIN TEMP:  75; 6HR MAX TEMP:  83; 6HR PCP: TRACE;

K.C. DOWNTOWN    N/A    N/A N/A N/A MISG      29.96S
LEES SUMMIT    CLOUDY    79  75  87 N10       29.98R
6HR MIN TEMP:  74; 6HR MAX TEMP:  81;

OLATHE - IXD   CLOUDY    81  76  84 N8        29.98F
6HR MIN TEMP:  74; 6HR MAX TEMP:  81;

OLATHE - OJC   CLOUDY    80  75  84 N7        29.98S
6HR MIN TEMP:  72; 6HR MAX TEMP:  80;

LAWRENCE       CLOUDY    83  77  82 N9        29.97F HX  92

$$

MOZ001>008-011>017-020>025-030>033-038>040-044>046-053-054-271900-
...NORTHERN AND CENTRAL MISSOURI...

CITY           SKY/WX    TMP DP  RH WIND       PRES   REMARKS
ST. JOSEPH     CLOUDY    84  75  74 N9        29.98F HX  92
6HR MIN TEMP:  74; 6HR MAX TEMP:  84;

MOSBY          CLOUDY    81  72  74 N6        29.97S
WARRENSBURG    CLOUDY    77  72  83 SW7       29.95F
WHITEMAN AFB   CLOUDY    77  77 100 W8        29.95S
6HR MIN TEMP:  73; 6HR MAX TEMP:  78; 6HR PCP: TRACE;

CLINTON        CLOUDY    79  75  89 W5        29.97S
SEDALIA        CLOUDY    79  76  90 SW9       29.97F
6HR MIN TEMP:  75; 6HR MAX TEMP:  80; 6HR PCP:  0.25;

WARSAW         NOT AVBL
CHILLICOTHE      N/A     85  74  69 VRB7      29.96F HX  92
6HR MIN TEMP:  75; 6HR MAX TEMP:  85;

KIRKSVILLE     CLOUDY    82  73  74 NE7       29.97F
6HR MIN TEMP:  74; 6HR MAX TEMP:  82;


$$

MOZ041-047>049-056>058-063>065-088>090-097-271900-
...EASTERN AND SOUTHERN MISSOURI...

CITY           SKY/WX    TMP DP  RH WIND       PRES   REMARKS
ST. LOUIS INTL CLOUDY    82  73  74 W13       29.95F
6HR MIN TEMP:  77; 6HR MAX TEMP:  83; 6HR PCP:  0.11;

SPIRIT OF STL  CLOUDY    80  76  87 W9        29.93F
COLUMBIA       CLOUDY    80  74  81 NW8       29.95F
JEFFERSON CITY CLOUDY    81  75  82 NW6       29.94F
ROLLA          CLOUDY    77  74  90 SW8       29.99F
OSAGE BEACH    CLOUDY    79  73  82 W6        29.97F
SPRINGFIELD    CLOUDY    80  74  81 SW14      29.98F
BRANSON        CLOUDY    77  75  94 CALM      30.01F
JOPLIN         CLOUDY    84  77  79 S8        29.97F HX  94
WEST PLAINS    CLOUDY    78  74  87 SW3       30.02F

$$

IAZ060-094-KSZ022-034>040-054-083-096-NEZ052-066-093-271900-
...KANSAS...SOUTHEAST NEBRASKA AND IOWA...

CITY           SKY/WX    TMP DP  RH WIND       PRES   REMARKS
TOPEKA         CLOUDY    81  76  84 N7        29.98F
6HR MIN TEMP:  76; 6HR MAX TEMP:  82;

MANHATTAN      MOSUNNY   85  70  60 N9        30.00F
EMPORIA        CLOUDY    83  73  72 N12       29.98S
CHANUTE        MOSUNNY   88  73  61 VRB6      29.96R HX  95
WICHITA        CLOUDY    84  75  74 N15       29.97S HX  92
OMAHA          MOSUNNY   83  63  50 N13       30.05F
LINCOLN        MOSUNNY   81  66  60 NE9       30.06F
FALLS CITY     CLOUDY    83  71  67 NE9       30.00F
LAMONI         CLOUDY    84  70  62 N12       30.00F
DES MOINES     PTSUNNY   83  66  56 N8        30.00F

$$





USA.gov is the U.S. government's official web portal to all federal, state and local government web resources and services.